[[{"header":{"parameterUnit":"m.s-1","parameterCategory":1,"la1":30.2991,"la2":30.254,"lo1":-89.0895,"lo2":-89.0444,"dy":0.0017,"dx":0.0017,"nx":28,"ny":28,"refTime":"2025-12-24T09:00:00:Z","depth":0,"parameterNumber":2,"parameterNumberName":"U-component_of_WINDS"},"data":[0,0,0,0,0,0,0,0,0,0,0,0,0,0,0,0,0,0,0,0,0,0,0,0,0,0,0,0,0,0,0,0,0,0,0,0,0,0,0,0,0,0,0,0,0,0,0,0,0,0,0,0,0,0,0,0,0,0,-0.81,-0.81,0,-0.8073,-0.8073,-0.8073,-0.8018,-0.8017,-0.8016,-0.8014,-0.7989,-0.7989,-0.799,0,0,0,0,0,0,0,0,0,0,0,0,0,-0.8106,-0.8106,-0.81,-0.81,-0.8099,-0.8073,-0.8073,-0.8072,-0.8018,-0.8017,-0.8015,-0.8014,-0.7989,-0.7989,-0.799,0,0,0,0,0,0,0,0,0,0,0,0,0,-0.8094,-0.8106,-0.81,-0.8069,-0.8066,-0.8073,-0.8073,-0.8072,-0.8018,-0.8017,-0.8015,-0.8013,-0.7989,-0.7989,-0.799,-0.8026,0,0,-0.7991,-0.7992,0,0,0,0,0,0,0,0,-0.8095,-0.8094,-0.8074,-0.8071,-0.8068,-0.8047,-0.8066,-0.8057,-0.8019,-0.8036,-0.8014,-0.8013,-0.801,-0.8009,-0.8007,-0.8025,-0.8024,-0.7992,-0.7992,-0.7992,-0.7992,0,0,0,0,0,0,0,-0.8095,-0.8095,-0.8089,-0.8074,-0.807,-0.8057,-0.8053,-0.8064,-0.8033,-0.8035,-0.8031,-0.8028,-0.8008,-0.8007,-0.8006,-0.8023,-0.7991,-0.7992,-0.7992,-0.7992,-0.807,-0.8072,0,0,0,0,0,0,-0.8101,-0.8096,-0.809,-0.8089,-0.8077,-0.8058,-0.8054,-0.8055,-0.8032,-0.8027,-0.803,-0.8026,-0.8007,-0.8006,-0.8005,-0.8047,-0.7992,-0.7993,-0.7993,-0.8069,-0.8071,-0.8073,0,0,0,0,0,0,-0.8101,-0.8101,-0.8091,-0.8091,-0.8089,-0.806,-0.8062,-0.8056,-0.8055,-0.8029,-0.8023,-0.8034,-0.8005,-0.8004,-0.8021,-0.8045,-0.7993,-0.7993,-0.8067,-0.8069,-0.8072,-0.813,0,0,0,0,0,0,-0.8101,-0.8101,-0.8114,-0.8092,-0.8089,-0.8108,-0.8063,-0.8056,-0.8055,-0.805,-0.8031,-0.8027,-0.8004,-0.8021,-0.8022,-0.8045,-0.7994,-0.8064,-0.8068,-0.8071,-0.8126,-0.8134,-0.8141,0,0,0,0,0,-0.8102,-0.8132,-0.8115,-0.8115,-0.8105,-0.8109,-0.8108,-0.808,-0.8058,-0.8071,-0.8054,-0.8027,-0.8042,-0.8023,-0.8024,-0.8047,-0.8063,-0.8067,-0.8071,-0.8122,-0.8133,-0.8141,0,0,0,0,0,0,-0.8159,-0.8128,-0.8109,-0.8133,-0.8124,-0.81,-0.8116,-0.8092,-0.809,-0.8085,-0.8052,-0.8048,-0.807,-0.806,-0.8039,-0.8081,-0.8048,-0.8052,-0.8087,-0.8097,-0.8104,-0.8107,-0.7994,0,0,0,0,0,-0.8174,-0.8179,-0.8153,-0.8176,-0.8172,-0.8145,-0.8146,-0.8126,-0.8115,-0.8111,-0.8096,-0.8087,-0.809,-0.8093,-0.8094,-0.8124,-0.8119,-0.814,-0.8148,-0.8155,-0.8159,-0.8175,-0.8184,-0.8086,-0.8086,-0.8085,0,0,-0.8205,-0.8189,-0.8195,-0.8187,-0.8178,-0.8185,-0.8142,-0.8151,-0.8157,-0.8113,-0.8128,-0.8117,-0.8105,-0.8129,-0.8138,-0.8121,-0.8185,-0.816,-0.8165,-0.8166,-0.818,-0.8189,-0.8198,-0.8088,-0.8088,-0.8087,0,0,-0.8267,-0.8255,-0.8273,-0.8265,-0.8251,-0.8232,-0.8237,-0.8216,-0.8207,-0.8221,-0.8189,-0.8195,-0.82,-0.8193,-0.8191,-0.825,-0.8225,-0.8251,-0.8292,-0.8308,-0.8316,-0.8323,-0.8345,-0.8353,-0.8255,-0.8255,-0.8255,0,-0.8308,-0.8317,-0.8286,-0.8298,-0.8295,-0.8255,-0.8274,-0.8268,-0.8255,-0.8255,-0.8236,-0.8242,-0.8231,-0.8253,-0.8268,-0.8266,-0.8271,-0.8253,-0.8317,-0.8324,-0.833,-0.835,-0.8358,-0.8259,-0.8258,-0.8258,-0.8258,0,-0.8369,-0.8376,-0.8392,-0.8381,-0.838,-0.8396,-0.8368,-0.8371,-0.8351,-0.8335,-0.8351,-0.8336,-0.8334,-0.8338,-0.8318,-0.8357,-0.8347,-0.8323,-0.8289,-0.8343,-0.8362,-0.8369,-0.8263,-0.8262,-0.8261,-0.826,0,0,-0.8466,-0.8437,-0.8444,-0.8438,-0.842,-0.8425,-0.8439,-0.8436,-0.844,-0.8433,-0.8444,-0.8449,-0.8427,-0.8424,-0.8403,-0.8417,-0.8466,-0.8391,-0.839,-0.8406,-0.8509,-0.8529,-0.8538,-0.8449,-0.8451,-0.8452,-0.8511,0,-0.8524,-0.8545,-0.8518,-0.8546,-0.8552,-0.8514,-0.8526,-0.8517,-0.8502,-0.8506,-0.8489,-0.8494,-0.8464,-0.8462,-0.8474,-0.8458,-0.8486,-0.8453,-0.8461,-0.8461,-0.8466,-0.8548,-0.8568,-0.8624,-0.8518,-0.8519,-0.852,0,-0.8595,-0.859,-0.8619,-0.8599,-0.86,-0.8612,-0.8607,-0.8611,-0.86,-0.8588,-0.8585,-0.856,-0.8573,-0.8539,-0.8557,-0.8535,-0.8537,-0.8529,-0.8531,-0.8531,-0.8495,-0.8552,-0.8641,-0.865,-0.8531,-0.853,-0.8529,0,-0.8664,-0.8665,-0.8682,-0.8679,-0.8656,-0.8665,-0.8656,-0.8643,-0.8643,-0.8639,-0.8639,-0.8637,-0.8637,-0.8636,-0.8612,-0.8589,-0.8633,-0.8597,-0.8625,-0.8626,-0.8636,-0.8636,-0.8729,-0.8636,-0.8636,-0.8636,-0.8635,0,-0.8732,-0.8751,-0.8713,-0.8724,-0.8744,-0.8713,-0.8734,-0.8721,-0.871,-0.8718,-0.8685,-0.8694,-0.866,-0.8666,-0.8647,-0.8665,-0.8665,-0.8656,-0.8651,-0.866,-0.8661,-0.8661,-0.8657,-0.8638,-0.8637,-0.8637,-0.8637,0,-0.8813,-0.8788,-0.8805,-0.8782,-0.8776,-0.8793,-0.8773,-0.8782,-0.8765,-0.8776,-0.8777,-0.8751,-0.8755,-0.873,-0.8731,-0.8718,-0.8746,-0.8734,-0.875,-0.8746,-0.8776,-0.8774,-0.8872,-0.8884,-0.8783,-0.8784,-0.8785,0,-0.8859,-0.8873,-0.8851,-0.8854,-0.8846,-0.8851,-0.8851,-0.8821,-0.8822,-0.8811,-0.8822,-0.8823,-0.8823,-0.8832,-0.8814,-0.8814,-0.8802,-0.8837,-0.8802,-0.881,-0.8804,-0.8804,-0.8805,-0.8844,-0.8846,-0.8847,-0.8847,0,-0.8943,-0.893,-0.8931,-0.8928,-0.8928,-0.8924,-0.8918,-0.8923,-0.889,-0.8894,-0.8897,-0.8897,-0.8897,-0.89,-0.8896,-0.8887,-0.8863,-0.8858,-0.8865,-0.8874,-0.8883,-0.888,-0.8771,-0.8856,-0.8855,-0.8855,-0.8854,-0.8854,-0.9009,-0.9019,-0.9006,-0.9008,-0.9,-0.8995,-0.9003,-0.8987,-0.8989,-0.8986,-0.8968,-0.8976,-0.8965,-0.8957,-0.8951,-0.8957,-0.8941,-0.895,-0.8953,-0.8956,-0.8961,-0.8882,-0.8956,-0.8956,-0.8956,-0.8956,-0.8955,0,-0.9092,-0.9081,-0.9083,-0.9076,-0.9078,-0.9053,-0.9045,-0.9049,-0.9055,-0.9047,-0.9047,-0.9052,-0.9054,-0.9036,-0.9036,-0.9044,-0.9033,-0.9045,-0.9045,-0.9044,-0.8976,-0.897,-0.9055,-0.9055,-0.9055,-0.9054,-0.9054,-0.9054,-0.9135,-0.9152,-0.9138,-0.9151,-0.914,-0.9146,-0.9144,-0.914,-0.9133,-0.914,-0.9141,-0.9129,-0.9116,-0.9115,-0.9117,-0.9111,-0.9113,-0.913,-0.9121,-0.9058,-0.9048,-0.9039,-0.9034,-0.913,-0.913,-0.9188,-0.9189,-0.9189]},{"header":{"parameterUnit":"m.s-1","parameterCategory":1,"la1":30.2991,"la2":30.254,"lo1":-89.0895,"lo2":-89.0444,"dy":0.0017,"dx":0.0017,"nx":28,"ny":28,"refTime":"2025-12-24T09:00:00:Z","depth":0,"parameterNumber":3,"parameterNumberName":"V-component_of_WINDS"},"data":[0,0,0,0,0,0,0,0,0,0,0,0,0,0,0,0,0,0,0,0,0,0,0,0,0,0,0,0,0,0,0,0,0,0,0,0,0,0,0,0,0,0,0,0,0,0,0,0,0,0,0,0,0,0,0,0,0,0,-0.2513,-0.2513,0,-0.2549,-0.2549,-0.2549,-0.2552,-0.2551,-0.2551,-0.2551,-0.2588,-0.2589,-0.2591,0,0,0,0,0,0,0,0,0,0,0,0,0,-0.2446,-0.2448,-0.2513,-0.2513,-0.2514,-0.2549,-0.2549,-0.2549,-0.2552,-0.2551,-0.2551,-0.255,-0.2587,-0.2589,-0.2591,0,0,0,0,0,0,0,0,0,0,0,0,0,-0.2478,-0.2448,-0.2513,-0.2519,-0.252,-0.2548,-0.2549,-0.255,-0.2552,-0.2551,-0.2551,-0.255,-0.2587,-0.2589,-0.2591,-0.2616,0,0,-0.2597,-0.2598,0,0,0,0,0,0,0,0,-0.2476,-0.248,-0.2518,-0.2519,-0.252,-0.2545,-0.2539,-0.2572,-0.2552,-0.254,-0.2551,-0.255,-0.2574,-0.2577,-0.2585,-0.2617,-0.2619,-0.2597,-0.2599,-0.2599,-0.26,0,0,0,0,0,0,0,-0.2474,-0.2479,-0.2527,-0.2518,-0.2519,-0.252,-0.2524,-0.2545,-0.256,-0.2541,-0.2541,-0.2545,-0.2575,-0.2583,-0.2586,-0.262,-0.2597,-0.2599,-0.26,-0.2601,-0.2674,-0.2674,0,0,0,0,0,0,-0.2471,-0.2477,-0.2526,-0.2528,-0.2496,-0.2522,-0.2526,-0.2538,-0.256,-0.2563,-0.2546,-0.2545,-0.258,-0.2584,-0.2588,-0.2618,-0.2599,-0.2601,-0.2603,-0.2673,-0.2674,-0.2675,0,0,0,0,0,0,-0.2469,-0.2475,-0.2524,-0.2503,-0.2509,-0.2524,-0.2536,-0.2539,-0.2547,-0.2563,-0.2566,-0.2552,-0.258,-0.2585,-0.2609,-0.262,-0.2602,-0.2604,-0.2672,-0.2673,-0.2674,-0.268,0,0,0,0,0,0,-0.2467,-0.2474,-0.2484,-0.2503,-0.251,-0.2545,-0.2537,-0.254,-0.2551,-0.255,-0.257,-0.2573,-0.258,-0.2606,-0.2611,-0.2622,-0.2606,-0.2671,-0.2673,-0.2674,-0.2679,-0.2681,-0.2683,0,0,0,0,0,-0.2465,-0.2484,-0.2484,-0.249,-0.2522,-0.2546,-0.255,-0.2557,-0.2552,-0.2562,-0.2572,-0.2572,-0.2617,-0.2608,-0.2614,-0.2626,-0.2671,-0.2672,-0.2674,-0.2678,-0.2681,-0.2683,0,0,0,0,0,0,-0.2467,-0.2487,-0.2487,-0.2513,-0.2528,-0.2546,-0.2559,-0.256,-0.2576,-0.2575,-0.2584,-0.2588,-0.2612,-0.2621,-0.2611,-0.2651,-0.2643,-0.2646,-0.2645,-0.2647,-0.2649,-0.2647,-0.2607,0,0,0,0,0,-0.247,-0.2487,-0.2504,-0.2525,-0.2532,-0.2544,-0.2554,-0.2559,-0.2574,-0.258,-0.2592,-0.2607,-0.2625,-0.2636,-0.2653,-0.268,-0.2684,-0.2691,-0.2693,-0.2695,-0.2698,-0.2713,-0.2716,-0.268,-0.268,-0.268,0,0,-0.2477,-0.249,-0.2501,-0.2526,-0.2537,-0.2555,-0.2549,-0.2568,-0.2581,-0.2583,-0.2607,-0.2616,-0.2633,-0.2659,-0.267,-0.2667,-0.2708,-0.2697,-0.2698,-0.27,-0.2715,-0.2718,-0.2721,-0.2681,-0.2681,-0.2681,0,0,-0.25,-0.2511,-0.2531,-0.2542,-0.256,-0.2567,-0.2572,-0.259,-0.2596,-0.262,-0.2621,-0.2637,-0.2667,-0.268,-0.269,-0.2716,-0.2717,-0.2721,-0.2732,-0.2747,-0.275,-0.2753,-0.2763,-0.2766,-0.2723,-0.2724,-0.2724,0,-0.2507,-0.2534,-0.254,-0.2559,-0.257,-0.2572,-0.2592,-0.2603,-0.2625,-0.2633,-0.2628,-0.2666,-0.2678,-0.2706,-0.2713,-0.272,-0.2726,-0.272,-0.2749,-0.2752,-0.2754,-0.2764,-0.2768,-0.2724,-0.2724,-0.2724,-0.2724,0,-0.2542,-0.256,-0.2573,-0.2595,-0.2607,-0.2626,-0.2636,-0.2648,-0.2651,-0.2659,-0.2683,-0.2697,-0.2717,-0.2724,-0.2727,-0.2753,-0.275,-0.2747,-0.274,-0.2758,-0.2767,-0.2771,-0.2725,-0.2724,-0.2724,-0.2724,0,0,-0.2568,-0.2592,-0.2597,-0.2607,-0.2626,-0.264,-0.2659,-0.2679,-0.2689,-0.2704,-0.272,-0.2745,-0.2743,-0.2754,-0.2759,-0.2771,-0.2792,-0.2767,-0.2767,-0.2772,-0.2822,-0.2825,-0.283,-0.2792,-0.2793,-0.2793,-0.2821,0,-0.2593,-0.2628,-0.2634,-0.2664,-0.2681,-0.2683,-0.2699,-0.2713,-0.2721,-0.2736,-0.2745,-0.2763,-0.2757,-0.2765,-0.2777,-0.2787,-0.2802,-0.2785,-0.2808,-0.2809,-0.2806,-0.2834,-0.2838,-0.2863,-0.2825,-0.2825,-0.2826,0,-0.2628,-0.2644,-0.2676,-0.2693,-0.27,-0.2715,-0.2733,-0.2748,-0.2763,-0.2768,-0.278,-0.2783,-0.2803,-0.2794,-0.2821,-0.2809,-0.2819,-0.2825,-0.2826,-0.283,-0.282,-0.284,-0.2871,-0.2876,-0.2832,-0.2831,-0.2831,0,-0.2645,-0.2674,-0.2697,-0.2705,-0.2725,-0.2736,-0.2744,-0.2759,-0.277,-0.2786,-0.2793,-0.2811,-0.2821,-0.2835,-0.2842,-0.2835,-0.287,-0.2861,-0.2875,-0.2875,-0.2884,-0.2884,-0.2919,-0.2888,-0.2888,-0.2888,-0.2888,0,-0.2674,-0.2694,-0.2705,-0.272,-0.2741,-0.2748,-0.277,-0.2778,-0.2791,-0.2807,-0.2809,-0.2824,-0.2832,-0.2848,-0.2854,-0.2877,-0.2881,-0.2886,-0.2887,-0.2886,-0.2886,-0.2894,-0.2893,-0.2889,-0.2889,-0.2888,-0.2888,0,-0.2698,-0.2706,-0.2731,-0.2748,-0.2752,-0.2768,-0.2782,-0.2796,-0.2803,-0.2823,-0.2828,-0.284,-0.2859,-0.2867,-0.2891,-0.2895,-0.2921,-0.2921,-0.2916,-0.2917,-0.2931,-0.293,-0.2974,-0.298,-0.2944,-0.2944,-0.2944,0,-0.2716,-0.2732,-0.2749,-0.276,-0.2769,-0.2786,-0.2798,-0.2804,-0.2816,-0.2834,-0.2846,-0.2865,-0.2881,-0.2911,-0.2922,-0.294,-0.2941,-0.2955,-0.2944,-0.2942,-0.2942,-0.2942,-0.2944,-0.2957,-0.2958,-0.2958,-0.2958,0,-0.2749,-0.2752,-0.2768,-0.2786,-0.28,-0.2814,-0.2828,-0.2836,-0.2845,-0.2858,-0.2878,-0.289,-0.2914,-0.2933,-0.2951,-0.296,-0.2961,-0.2961,-0.2966,-0.2966,-0.2963,-0.2966,-0.2923,-0.2961,-0.2961,-0.296,-0.296,-0.296,-0.2771,-0.2785,-0.28,-0.2818,-0.2829,-0.2842,-0.2856,-0.2864,-0.2881,-0.2901,-0.2903,-0.2924,-0.2939,-0.2964,-0.2973,-0.299,-0.2987,-0.2993,-0.2995,-0.2996,-0.2998,-0.2959,-0.2993,-0.2993,-0.2993,-0.2993,-0.2993,0,-0.2805,-0.2814,-0.283,-0.285,-0.2864,-0.2863,-0.2878,-0.289,-0.2908,-0.2922,-0.2937,-0.2959,-0.2978,-0.2989,-0.3008,-0.3019,-0.302,-0.3024,-0.3024,-0.3026,-0.2999,-0.2994,-0.3023,-0.3023,-0.3023,-0.3023,-0.3023,-0.3023,-0.2824,-0.2847,-0.2852,-0.2881,-0.289,-0.291,-0.2919,-0.2931,-0.2942,-0.2967,-0.2982,-0.2989,-0.3002,-0.3021,-0.3038,-0.3041,-0.3048,-0.3053,-0.3056,-0.3031,-0.3028,-0.3025,-0.302,-0.3054,-0.3054,-0.3081,-0.3082,-0.3082]}]]